Phoenix Deer Valley, AZ

7:12 PM MST on June 28, 2017 (GMT -0700)
Phoenix-Deer Valley Municipal

Weather History for KDVT - November, 2013

Change the Weather History Date:

Saturday, November 30, 2013

  Actual Average Record
Temperature  
Mean Temperature 58 °F -  
Max Temperature 70 °F 65 °F 79 °F (1999)
Min Temperature 46 °F 44 °F 33 °F (2006)
Degree Days  
Heating Degree Days 7    
Growing Degree Days 8 (Base 50)    
Moisture  
Dew Point 43 °F    
Average Humidity 61    
Maximum Humidity 83    
Minimum Humidity 35    
Precipitation  
Precipitation 0.00 in - - ()
Sea Level Pressure  
Sea Level Pressure 30.09 in    
Wind  
Wind Speed 2 mph (SE)    
Max Wind Speed 7 mph    
Max Gust Speed -    
Visibility 10 miles    
Events      
Averages and records for this station are not official NWS values.
T = Trace of Precipitation, MM = Missing Value Source: NWS Daily Summary

Daily Weather History Graph

Daily Weather History Graph

Search for Another Location

Airport or City:

Trip Planner

Search our weather history database for the weather conditions in past years. The results will help you decide how hot, cold, wet, or windy it might be!

Date:

Astronomy

Nov. 30, 2013 Rise Set
Actual Time 7:14 AM MST 5:19 PM MST
Civil Twilight 6:47 AM MST 5:47 PM MST
Nautical Twilight 6:16 AM MST 6:17 PM MST
Astronomical Twilight 5:46 AM MST 6:47 PM MST
Moon 4:35 AM MST (11/30) 3:41 PM MST (11/30)
Length of Visible Light 11h 00m
Length of Day
10h 05m
Waning Crescent, 7% of the Moon is Illuminated
Nov 30
Waning Crescent
Dec 2
New
Dec 9
First Quarter
Dec 17
Full
Dec 25
Last Quarter

Hourly Weather History & Observations

Time (MST) Temp. Dew Point Humidity Pressure Visibility Wind Dir Wind Speed Gust Speed Precip Events Conditions
12:53 AM 53.1 °F 42.1 °F 66% 30.10 in 10.0 mi NNE 5.8 mph - N/A   Clear
1:53 AM 51.1 °F 42.1 °F 71% 30.10 in 10.0 mi Calm Calm - N/A   Clear
2:53 AM 48.9 °F 43.0 °F 80% 30.11 in 10.0 mi Calm Calm - N/A   Clear
3:53 AM 48.0 °F 42.1 °F 80% 30.10 in 10.0 mi NNE 3.5 mph - N/A   Clear
4:53 AM 48.0 °F 42.1 °F 80% 30.10 in 10.0 mi ESE 3.5 mph - N/A   Clear
5:53 AM 50.0 °F 41.0 °F 71% 30.10 in 10.0 mi North 4.6 mph - N/A   Clear
6:53 AM 46.9 °F 41.0 °F 80% 30.13 in 10.0 mi Calm Calm - N/A   Clear
7:53 AM 48.0 °F 42.1 °F 80% 30.14 in 10.0 mi Calm Calm - N/A   Clear
8:53 AM 55.0 °F 42.1 °F 62% 30.15 in 10.0 mi Calm Calm - N/A   Clear
9:53 AM 59.0 °F 41.0 °F 51% 30.15 in 10.0 mi Calm Calm - N/A   Clear
10:53 AM 63.0 °F 41.0 °F 45% 30.14 in 10.0 mi Variable 3.5 mph - N/A   Clear
11:53 AM 64.9 °F 41.0 °F 42% 30.11 in 10.0 mi Calm Calm - N/A   Clear
12:53 PM 68.0 °F 41.0 °F 37% 30.07 in 10.0 mi Calm Calm - N/A   Clear
1:53 PM 70.0 °F 42.1 °F 36% 30.04 in 10.0 mi SSW 4.6 mph - N/A   Clear
2:53 PM 70.0 °F 41.0 °F 35% 30.03 in 10.0 mi WSW 5.8 mph - N/A   Clear
3:53 PM 69.1 °F 42.1 °F 38% 30.03 in 10.0 mi WSW 6.9 mph - N/A   Clear
4:53 PM 66.9 °F 43.0 °F 42% 30.04 in 10.0 mi WSW 4.6 mph - N/A   Clear
5:53 PM 64.0 °F 43.0 °F 46% 30.04 in 10.0 mi Calm Calm - N/A   Clear
6:53 PM 62.1 °F 44.1 °F 52% 30.07 in 10.0 mi Calm Calm - N/A   Clear
7:53 PM 57.9 °F 46.0 °F 65% 30.09 in 10.0 mi Calm Calm - N/A   Clear
8:53 PM 55.0 °F 46.9 °F 74% 30.09 in 10.0 mi Calm Calm - N/A   Clear
9:53 PM 52.0 °F 46.9 °F 83% 30.10 in 10.0 mi Calm Calm - N/A   Clear
10:53 PM 52.0 °F 46.0 °F 80% 30.11 in 10.0 mi ESE 3.5 mph - N/A   Clear
11:53 PM 52.0 °F 46.0 °F 80% 30.11 in 10.0 mi ESE 3.5 mph - N/A   Clear